[[{"header":{"parameterUnit":"m.s-1","parameterCategory":1,"la1":30.2991,"la2":30.254,"lo1":-89.0895,"lo2":-89.0444,"dy":0.0017,"dx":0.0017,"nx":28,"ny":28,"refTime":"2024-02-27T03:00:00:Z","depth":0,"parameterNumber":2,"parameterNumberName":"U-component_of_WINDS"},"data":[0,0,0,0,0,0,0,0,0,0,0,0,0,0,0,0,0,0,0,0,0,0,0,0,0,0,0,0,0,0,0,0,0,0,0,0,0,0,0,0,0,0,0,0,0,0,0,0,0,0,0,0,0,0,0,0,0,0,-0.0183,-0.0184,0,-0.0309,-0.0311,-0.0312,-0.0403,-0.0404,-0.0405,-0.0406,-0.0533,-0.0535,-0.0538,0,0,0,0,0,0,0,0,0,0,0,0,0,-0.0019,-0.0021,-0.0183,-0.0184,-0.0186,-0.0309,-0.0311,-0.0312,-0.0403,-0.0404,-0.0405,-0.0406,-0.0532,-0.0535,-0.0538,0,0,0,0,0,0,0,0,0,0,0,0,0,-0.0112,-0.0022,-0.0182,-0.0246,-0.0253,-0.0309,-0.0311,-0.0313,-0.0403,-0.0404,-0.0405,-0.0407,-0.0531,-0.0535,-0.0539,-0.054,0,0,-0.0551,-0.0553,0,0,0,0,0,0,0,0,-0.0107,-0.0118,-0.0235,-0.0242,-0.025,-0.0342,-0.03,-0.0389,-0.0403,-0.0346,-0.0406,-0.0407,-0.0468,-0.0477,-0.0498,-0.0546,-0.0552,-0.0551,-0.0554,-0.0555,-0.0557,0,0,0,0,0,0,0,-0.01,-0.0113,-0.0233,-0.0237,-0.0246,-0.0268,-0.0282,-0.0317,-0.0399,-0.0351,-0.0358,-0.0372,-0.0472,-0.0494,-0.0502,-0.0554,-0.0551,-0.0555,-0.0557,-0.0559,-0.0609,-0.0608,0,0,0,0,0,0,-0.0084,-0.0107,-0.0229,-0.0237,-0.018,-0.027,-0.0286,-0.0311,-0.0399,-0.0413,-0.0371,-0.0376,-0.0487,-0.0497,-0.0507,-0.0514,-0.0555,-0.0559,-0.0561,-0.061,-0.0609,-0.0608,0,0,0,0,0,0,-0.008,-0.0094,-0.0224,-0.0174,-0.0192,-0.0272,-0.0299,-0.0313,-0.0335,-0.0414,-0.0429,-0.0378,-0.0488,-0.0501,-0.0531,-0.052,-0.0561,-0.0565,-0.0611,-0.061,-0.0608,-0.0529,0,0,0,0,0,0,-0.0075,-0.0092,-0.0093,-0.0173,-0.0194,-0.0246,-0.0298,-0.0315,-0.0342,-0.035,-0.0425,-0.0438,-0.049,-0.0525,-0.0535,-0.0526,-0.0568,-0.0613,-0.061,-0.0609,-0.0533,-0.0525,-0.0518,0,0,0,0,0,-0.0069,-0.0066,-0.0093,-0.0107,-0.0198,-0.0245,-0.0257,-0.0318,-0.0341,-0.0343,-0.0394,-0.0436,-0.052,-0.0527,-0.054,-0.0532,-0.0614,-0.0611,-0.0609,-0.0536,-0.0526,-0.0518,0,0,0,0,0,0,0.0018,-0.0077,-0.0109,-0.0132,-0.018,-0.0261,-0.0265,-0.0305,-0.0348,-0.0353,-0.0425,-0.0442,-0.0464,-0.0501,-0.0508,-0.0538,-0.0572,-0.0572,-0.0513,-0.0504,-0.0497,-0.0487,-0.0571,0,0,0,0,0,0.0034,0.0003,-0.0078,-0.009,-0.0113,-0.0185,-0.0208,-0.025,-0.0303,-0.0323,-0.0376,-0.0425,-0.0462,-0.0485,-0.0524,-0.0539,-0.0557,-0.054,-0.0532,-0.0526,-0.0524,-0.0535,-0.0528,-0.06,-0.06,-0.06,0,0,0.0068,0.0012,-0.0003,-0.0074,-0.0117,-0.0146,-0.0201,-0.023,-0.0253,-0.0328,-0.0359,-0.04,-0.0459,-0.0481,-0.0494,-0.0513,-0.0509,-0.0523,-0.0517,-0.0519,-0.0532,-0.0525,-0.0519,-0.0598,-0.0598,-0.0599,0,0,0.0114,0.0069,0.0054,0.0012,-0.0052,-0.01,-0.0103,-0.0178,-0.0208,-0.0241,-0.0298,-0.0326,-0.0389,-0.0429,-0.0457,-0.0427,-0.0467,-0.0437,-0.0398,-0.0407,-0.0401,-0.0397,-0.0385,-0.038,-0.0436,-0.0436,-0.0436,0,0.0165,0.0117,0.0051,0.0025,-0.0005,-0.0074,-0.009,-0.0127,-0.0199,-0.0218,-0.0239,-0.032,-0.0365,-0.0397,-0.039,-0.0411,-0.0416,-0.0428,-0.0397,-0.0393,-0.039,-0.0379,-0.0375,-0.0432,-0.0432,-0.0433,-0.0433,0,0.0182,0.015,0.0145,0.0076,0.0046,0.0025,-0.0043,-0.0066,-0.0106,-0.0151,-0.0184,-0.0241,-0.0292,-0.0303,-0.0342,-0.0341,-0.0351,-0.0383,-0.0419,-0.0377,-0.0369,-0.0366,-0.0426,-0.0427,-0.0429,-0.043,0,0,0.028,0.0174,0.0174,0.0142,0.0066,0.004,0.0016,-0.0035,-0.0052,-0.01,-0.0122,-0.0174,-0.0204,-0.0237,-0.0281,-0.0289,-0.0261,-0.0321,-0.0323,-0.0307,-0.0263,-0.0237,-0.0232,-0.0288,-0.0288,-0.0288,-0.0257,0,0.0316,0.0269,0.0209,0.0182,0.0152,0.0085,0.0064,0.0016,-0.0027,-0.0059,-0.0107,-0.0142,-0.018,-0.02,-0.0211,-0.0261,-0.0252,-0.0265,-0.0308,-0.0309,-0.029,-0.0227,-0.0201,-0.0169,-0.0255,-0.0254,-0.0254,0,0.0351,0.0306,0.0276,0.0203,0.0188,0.0171,0.0119,0.0089,0.0033,0.0002,-0.0034,-0.0082,-0.011,-0.0143,-0.0182,-0.0189,-0.021,-0.0238,-0.0238,-0.0244,-0.0278,-0.023,-0.0161,-0.0156,-0.0249,-0.025,-0.025,0,0.0426,0.0358,0.0332,0.0306,0.022,0.0209,0.0173,0.0115,0.0089,0.0043,0.0025,-0.0022,-0.0048,-0.0083,-0.0143,-0.0161,-0.0175,-0.0213,-0.0201,-0.0199,-0.02,-0.0199,-0.0132,-0.0215,-0.0215,-0.0215,-0.0215,0,0.0472,0.0457,0.0365,0.0349,0.033,0.0261,0.0244,0.0202,0.0151,0.0126,0.0065,0.0043,-0.0035,-0.0066,-0.0112,-0.0137,-0.0149,-0.0174,-0.0186,-0.0168,-0.0165,-0.0182,-0.0186,-0.0214,-0.0214,-0.0214,-0.0215,0,0.0554,0.0491,0.0458,0.0379,0.0359,0.0348,0.0281,0.0263,0.0216,0.0185,0.0173,0.01,0.006,-0.0003,-0.0061,-0.0093,-0.0109,-0.013,-0.009,-0.0098,-0.0082,-0.0082,-0.0023,-0.0019,-0.0105,-0.0104,-0.0103,0,0.0588,0.0575,0.0494,0.0473,0.0438,0.0404,0.0376,0.0308,0.0281,0.0216,0.0206,0.0161,0.0122,0.0062,0.0003,-0.0042,-0.0063,-0.004,-0.007,-0.0052,-0.0062,-0.006,-0.0062,-0.0032,-0.0031,-0.003,-0.0029,0,0.0655,0.0625,0.0587,0.0538,0.0506,0.0464,0.0419,0.0405,0.0327,0.03,0.0258,0.0228,0.0168,0.0125,0.0071,0.0034,-0.001,-0.0019,-0.0018,0.0,0.0024,0.0012,-0.007,-0.0019,-0.002,-0.0021,-0.0022,-0.0022,0.0714,0.07,0.0641,0.06,0.0559,0.0519,0.0498,0.0448,0.0411,0.0357,0.0319,0.028,0.0223,0.0147,0.0112,0.0081,0.0062,0.0062,0.0062,0.0064,0.0071,0.0029,0.0071,0.0071,0.007,0.007,0.007,0,0.0779,0.0738,0.0701,0.064,0.0608,0.0568,0.0517,0.0493,0.0459,0.041,0.0372,0.0325,0.0282,0.022,0.0173,0.016,0.0138,0.015,0.015,0.0143,0.0091,0.0095,0.0168,0.0168,0.0168,0.0168,0.0168,0.0168,0.0809,0.0782,0.0745,0.0697,0.0655,0.0616,0.059,0.0552,0.0513,0.0462,0.0426,0.0385,0.0331,0.028,0.0239,0.0222,0.0208,0.0226,0.0203,0.0155,0.0146,0.0138,0.0142,0.0223,0.0223,0.0257,0.0257,0.0258]},{"header":{"parameterUnit":"m.s-1","parameterCategory":1,"la1":30.2991,"la2":30.254,"lo1":-89.0895,"lo2":-89.0444,"dy":0.0017,"dx":0.0017,"nx":28,"ny":28,"refTime":"2024-02-27T03:00:00:Z","depth":0,"parameterNumber":3,"parameterNumberName":"V-component_of_WINDS"},"data":[0,0,0,0,0,0,0,0,0,0,0,0,0,0,0,0,0,0,0,0,0,0,0,0,0,0,0,0,0,0,0,0,0,0,0,0,0,0,0,0,0,0,0,0,0,0,0,0,0,0,0,0,0,0,0,0,0,0,5.2017,5.2018,0,5.2091,5.2092,5.2092,5.2094,5.2093,5.2092,5.2091,5.2173,5.2176,5.2179,0,0,0,0,0,0,0,0,0,0,0,0,0,5.1884,5.1887,5.2017,5.2018,5.2019,5.2091,5.2092,5.2093,5.2094,5.2093,5.2092,5.2091,5.2172,5.2175,5.2179,0,0,0,0,0,0,0,0,0,0,0,0,0,5.1948,5.1887,5.2017,5.2028,5.203,5.209,5.2092,5.2093,5.2094,5.2093,5.2092,5.209,5.2171,5.2175,5.218,5.2236,0,0,5.2193,5.2195,0,0,0,0,0,0,0,0,5.1945,5.1953,5.2025,5.2027,5.2029,5.2082,5.2075,5.2141,5.2095,5.207,5.2091,5.209,5.2144,5.2151,5.2168,5.2239,5.2243,5.2194,5.2197,5.2199,5.22,0,0,0,0,0,0,0,5.194,5.195,5.2046,5.2026,5.2029,5.2032,5.2039,5.2087,5.2114,5.2072,5.2072,5.2081,5.2145,5.2163,5.217,5.2244,5.2194,5.2198,5.2201,5.2202,5.237,5.2371,0,0,0,0,0,0,5.1933,5.1946,5.2044,5.2048,5.1983,5.2035,5.2044,5.2066,5.2114,5.2119,5.2082,5.2081,5.2156,5.2164,5.2173,5.2244,5.2199,5.2203,5.2205,5.2368,5.237,5.2372,0,0,0,0,0,0,5.193,5.1941,5.2041,5.1998,5.201,5.2039,5.2064,5.2069,5.2087,5.2121,5.2126,5.2095,5.2155,5.2166,5.222,5.2247,5.2205,5.2209,5.2366,5.2369,5.2371,5.2385,0,0,0,0,0,0,5.1926,5.194,5.196,5.1998,5.2013,5.2085,5.2066,5.2071,5.2094,5.2093,5.2135,5.2141,5.2155,5.2214,5.2225,5.2252,5.2213,5.2364,5.2367,5.237,5.2383,5.2388,5.2393,0,0,0,0,0,5.1921,5.1962,5.1961,5.1973,5.2038,5.2087,5.2095,5.2109,5.2096,5.2118,5.214,5.2139,5.2242,5.2219,5.2232,5.2261,5.2362,5.2366,5.237,5.2381,5.2387,5.2393,0,0,0,0,0,0,5.1928,5.1967,5.1966,5.202,5.205,5.2087,5.2114,5.2115,5.2151,5.2149,5.2167,5.2177,5.2231,5.2251,5.2226,5.232,5.2301,5.2307,5.2304,5.2311,5.2316,5.2311,5.2216,0,0,0,0,0,5.1935,5.1969,5.2002,5.2047,5.2061,5.2085,5.2107,5.2115,5.2148,5.2161,5.2187,5.2221,5.2261,5.2287,5.2325,5.2385,5.2397,5.2412,5.2417,5.2421,5.2427,5.2464,5.2472,5.2385,5.2385,5.2385,0,0,5.1951,5.1977,5.1997,5.2049,5.2073,5.2111,5.2096,5.2136,5.2165,5.2168,5.2221,5.2241,5.228,5.2339,5.2366,5.2357,5.2454,5.2426,5.2429,5.2433,5.2469,5.2477,5.2485,5.2387,5.2387,5.2386,0,0,5.2,5.2021,5.2062,5.2086,5.2123,5.2139,5.2148,5.2186,5.2199,5.2252,5.2256,5.2292,5.236,5.2388,5.2411,5.2474,5.2476,5.2486,5.2513,5.2548,5.2555,5.2561,5.2587,5.2595,5.2491,5.2491,5.2491,0,5.2016,5.2071,5.2083,5.2123,5.2147,5.215,5.2193,5.2217,5.2265,5.2282,5.2272,5.2358,5.2385,5.2451,5.2466,5.2484,5.2499,5.2481,5.2553,5.2559,5.2565,5.259,5.2599,5.2492,5.2492,5.2492,5.2492,0,5.209,5.2128,5.2157,5.2202,5.2229,5.227,5.2291,5.2318,5.2324,5.2342,5.2399,5.243,5.2476,5.2493,5.2499,5.2561,5.2555,5.2548,5.253,5.2575,5.2598,5.2607,5.2494,5.2494,5.2493,5.2493,0,0,5.2145,5.2196,5.2207,5.2229,5.227,5.2301,5.2345,5.2388,5.2412,5.2445,5.2484,5.2542,5.2537,5.2564,5.2574,5.2605,5.2657,5.2595,5.2597,5.2608,5.2731,5.2737,5.2747,5.2658,5.2659,5.2661,5.2728,0,5.22,5.2274,5.2287,5.2354,5.2391,5.2395,5.2434,5.2465,5.2483,5.252,5.2541,5.2583,5.2571,5.2588,5.2619,5.2644,5.2682,5.2639,5.2697,5.2699,5.2689,5.2759,5.2765,5.2827,5.2737,5.2738,5.274,0,5.2274,5.2308,5.2378,5.2417,5.2433,5.2466,5.2509,5.2543,5.258,5.2592,5.2622,5.263,5.2678,5.2657,5.2726,5.2696,5.2721,5.2737,5.274,5.2748,5.2723,5.2771,5.2847,5.2857,5.2753,5.2752,5.2751,0,5.231,5.2374,5.2425,5.2443,5.2488,5.2512,5.2533,5.2568,5.2595,5.2633,5.2651,5.2695,5.2719,5.2755,5.2775,5.2757,5.2844,5.2823,5.2858,5.2858,5.2877,5.2876,5.2961,5.289,5.289,5.2889,5.2889,0,5.2371,5.2415,5.2442,5.2473,5.2523,5.2539,5.2588,5.2609,5.2641,5.2679,5.2685,5.2721,5.2745,5.2786,5.2802,5.2859,5.2869,5.2883,5.2887,5.2883,5.2882,5.2901,5.2899,5.2892,5.2891,5.2891,5.289,0,5.2421,5.244,5.2496,5.2535,5.2546,5.2581,5.2615,5.2648,5.2666,5.2715,5.2727,5.2757,5.2806,5.2829,5.2889,5.2901,5.2966,5.2966,5.2953,5.2955,5.2989,5.2987,5.3091,5.3107,5.3023,5.3024,5.3024,0,5.2459,5.2493,5.2535,5.256,5.2581,5.2621,5.2648,5.2666,5.2694,5.274,5.2768,5.2815,5.2855,5.2932,5.2962,5.3009,5.3012,5.3046,5.3019,5.3016,5.3016,5.3015,5.302,5.3051,5.3052,5.3052,5.3053,0,5.2527,5.2536,5.2573,5.2615,5.2646,5.268,5.2714,5.2735,5.2759,5.2791,5.2839,5.287,5.2931,5.2981,5.303,5.3054,5.306,5.3061,5.3072,5.3069,5.3061,5.3069,5.2968,5.3059,5.3058,5.3058,5.3057,5.3057,5.2575,5.2605,5.264,5.2683,5.271,5.2742,5.2775,5.2797,5.2837,5.2887,5.2896,5.2949,5.2988,5.3055,5.3081,5.3125,5.3118,5.3133,5.3137,5.3141,5.3145,5.3052,5.3134,5.3133,5.3133,5.3133,5.3133,0,5.2645,5.2668,5.2707,5.2753,5.2788,5.2786,5.2824,5.2854,5.2899,5.2934,5.2973,5.3031,5.3079,5.3112,5.3162,5.3191,5.3195,5.3204,5.3203,5.3209,5.3146,5.3133,5.32,5.32,5.32,5.32,5.32,5.32,5.2686,5.2739,5.2752,5.282,5.2843,5.2893,5.2915,5.2946,5.2974,5.3038,5.3077,5.3097,5.3134,5.3186,5.3232,5.3241,5.326,5.327,5.3279,5.322,5.3213,5.3207,5.3194,5.3273,5.3273,5.3339,5.3339,5.334]}]]